, LA

(GMT )
Boothville

Weather History for KBVE - January, 2014

Change the Weather History Date:

Monday, January 13, 2014

  Actual Average Record
Temperature  
Mean Temperature 66 °F -  
Max Temperature 78 °F - - ()
Min Temperature 55 °F - - ()
Cooling Degree Days 2    
Growing Degree Days 16 (Base 50)    
Moisture  
Dew Point 56 °F    
Average Humidity 75    
Maximum Humidity 90    
Minimum Humidity 52    
Precipitation  
Precipitation 1.26 in - - ()
Sea Level Pressure  
Sea Level Pressure 29.98 in    
Wind  
Wind Speed 6 mph (ENE)    
Max Wind Speed 16 mph    
Max Gust Speed 26 mph    
Visibility 4 miles    
Events Fog , Rain    
T = Trace of Precipitation, MM = Missing Value Source: NWS Daily Summary

Daily Weather History Graph

Daily Weather History Graph

Search for Another Location

Airport or City:

Trip Planner

Search our weather history database for the weather conditions in past years. The results will help you decide how hot, cold, wet, or windy it might be!

Date:

Astronomy

Jan. 13, 2014 Rise Set
Actual Time 6:53 AM CST 5:19 PM CST
Civil Twilight 6:27 AM CST 5:45 PM CST
Nautical Twilight 5:58 AM CST 6:14 PM CST
Astronomical Twilight 5:29 AM CST 6:43 PM CST
Moon 3:33 PM CST (1/13) 4:43 AM CST (1/13)
Length of Visible Light 11h 18m
Length of Day
10h 26m
Waxing Gibbous, 95% of the Moon is Illuminated
Jan 13
Waxing Gibbous
Jan 15
Full
Jan 23
Last Quarter
Jan 30
New
Feb 6
First Quarter

Hourly Weather History & Observations

Time (CST) Temp. Dew Point Humidity Pressure Visibility Wind Dir Wind Speed Gust Speed Precip Events Conditions
12:51 AM 62.1 °F 51.1 °F 67% 30.09 in 10.0 mi SE 6.9 mph - N/A   Clear
1:51 AM 68.0 °F 54.0 °F 61% 30.05 in 10.0 mi SE 6.9 mph - N/A   Clear
2:51 AM 61.0 °F 52.0 °F 72% 30.04 in 10.0 mi SE 5.8 mph - N/A   Clear
3:51 AM 57.9 °F 52.0 °F 81% 30.04 in 10.0 mi ESE 3.5 mph - N/A   Clear
4:51 AM 55.9 °F 52.0 °F 87% 30.02 in 8.0 mi East 4.6 mph - N/A   Clear
5:43 AM 55.9 °F 51.1 °F 84% 30.03 in 8.0 mi Calm Calm - N/A   Mostly Cloudy
5:51 AM 57.0 °F 53.1 °F 87% 30.04 in 9.0 mi Calm Calm - N/A   Overcast
6:51 AM 55.9 °F 51.1 °F 84% 30.05 in 10.0 mi NE 3.5 mph - 0.00 in   Overcast
7:12 AM 55.9 °F 50.0 °F 80% 30.05 in 7.0 mi ENE 3.5 mph - 0.00 in Rain Light Rain
7:51 AM 55.9 °F 51.1 °F 84% 30.04 in 7.0 mi NE 4.6 mph - 0.00 in   Overcast
8:22 AM 57.9 °F 52.0 °F 81% 30.04 in 2.5 mi East 3.5 mph - 0.01 in Rain Rain
8:30 AM 57.0 °F 52.0 °F 83% 30.04 in 3.0 mi NNE 3.5 mph - 0.03 in Rain Light Rain
8:49 AM 55.4 °F 51.8 °F 88% 30.03 in 1.8 mi NNE 5.8 mph - 0.06 in Rain Rain
8:51 AM 55.0 °F 52.0 °F 89% 30.04 in 1.8 mi NNE 5.8 mph - 0.06 in Rain Rain
8:59 AM 55.9 °F 52.0 °F 87% 30.04 in 1.0 mi North 5.8 mph - 0.01 in Rain Light Rain
9:02 AM 55.0 °F 52.0 °F 89% 30.04 in 0.8 mi North 5.8 mph - 0.02 in Rain Light Rain
9:12 AM 55.9 °F 53.1 °F 90% 30.03 in 1.5 mi NE 6.9 mph - 0.02 in Rain Light Rain
9:21 AM 57.0 °F 53.1 °F 87% 30.04 in 0.5 mi ENE 5.8 mph - 0.02 in Fog , Rain Light Rain
9:51 AM 60.1 °F 55.9 °F 86% 30.04 in 0.5 mi North 8.1 mph - 0.27 in Fog , Rain Heavy Rain
10:01 AM 63.0 °F 57.9 °F 84% 30.04 in 1.8 mi NNW 8.1 mph - 0.08 in Rain Rain
10:14 AM 63.0 °F 59.0 °F 87% 30.02 in 0.8 mi East 6.9 mph - 0.24 in Rain Rain
10:51 AM 63.0 °F 57.9 °F 84% 30.00 in 0.2 mi ENE 4.6 mph - 0.29 in   Haze
10:59 AM 62.1 °F 57.0 °F 84% 29.99 in 0.2 mi ENE 5.8 mph - N/A   Haze
11:39 AM 61.0 °F 55.9 °F 83% 29.96 in 0.5 mi ENE 6.9 mph - 0.05 in Rain Light Rain
11:51 AM 60.1 °F 55.9 °F 86% 29.97 in 0.5 mi Variable 3.5 mph - 0.10 in Fog , Rain Light Rain
12:05 PM 63.0 °F 57.9 °F 84% 29.95 in 0.5 mi NNW 16.1 mph 26.5 mph 0.20 in Rain Heavy Rain
12:10 PM 64.0 °F 60.1 °F 87% 29.95 in 1.0 mi NNW 13.8 mph 26.5 mph 0.28 in Rain Rain
12:21 PM 66.9 °F 60.1 °F 79% 29.97 in 2.5 mi NW 3.5 mph - 0.31 in Rain Rain
12:48 PM 69.8 °F 57.2 °F 64% 29.95 in 5.0 mi Calm Calm - 0.38 in Rain Light Rain
12:51 PM 71.1 °F 59.0 °F 66% 29.95 in 5.0 mi SSE 3.5 mph - 0.38 in Rain Light Rain
1:51 PM 66.0 °F 60.1 °F 81% 29.90 in 7.0 mi Calm Calm - 0.09 in Rain Light Rain
2:51 PM 78.1 °F 59.0 °F 52% 29.90 in 4.0 mi SE 5.8 mph - 0.01 in Rain Rain
3:26 PM 69.1 °F 59.0 °F 70% 29.89 in 10.0 mi ESE 5.8 mph - 0.04 in   Overcast
3:51 PM 73.0 °F 59.0 °F 61% 29.90 in 8.0 mi SE 8.1 mph - 0.04 in Rain Light Rain
4:14 PM 69.1 °F 59.0 °F 70% 29.90 in 4.0 mi SE 6.9 mph - 0.01 in Rain Light Rain
4:51 PM 68.0 °F 57.0 °F 68% 29.90 in 5.0 mi ESE 6.9 mph - 0.02 in   Haze
5:16 PM 66.9 °F 57.0 °F 70% 29.90 in 4.0 mi SE 6.9 mph - 0.00 in   Haze
5:26 PM 69.1 °F 57.0 °F 65% 29.91 in 4.0 mi SE 5.8 mph - 0.00 in Rain Light Rain
5:51 PM 72.0 °F 59.0 °F 64% 29.91 in 10.0 mi SSE 3.5 mph - 0.00 in   Overcast
6:51 PM 75.0 °F 57.9 °F 55% 29.91 in 8.0 mi SSE 6.9 mph - N/A   Overcast
7:06 PM 73.0 °F 59.0 °F 61% 29.92 in 8.0 mi South 3.5 mph - N/A   Overcast
7:51 PM 77.0 °F 57.9 °F 52% 29.92 in 8.0 mi South 4.6 mph - N/A   Overcast
8:05 PM 75.9 °F 57.9 °F 54% 29.92 in 7.0 mi SW 4.6 mph - N/A   Overcast
8:23 PM 72.0 °F 59.0 °F 64% 29.93 in 6.0 mi West 5.8 mph - N/A   Haze
8:32 PM 73.0 °F 59.0 °F 61% 29.94 in 6.0 mi West 5.8 mph - N/A   Haze
8:35 PM 73.0 °F 57.9 °F 59% 29.94 in 6.0 mi West 5.8 mph - N/A   Haze
8:51 PM 71.1 °F 57.9 °F 63% 29.94 in 4.0 mi WSW 4.6 mph - N/A   Haze
9:05 PM 73.0 °F 59.0 °F 61% 29.93 in 1.8 mi West 6.9 mph - N/A   Haze
9:17 PM 69.1 °F 59.0 °F 70% 29.94 in 0.5 mi West 6.9 mph - N/A   Haze
9:27 PM 68.0 °F 59.0 °F 73% 29.94 in 0.2 mi West 6.9 mph - N/A   Haze
9:51 PM 64.0 °F 59.0 °F 84% 29.95 in 0.2 mi West 6.9 mph - N/A   Haze
10:51 PM 62.1 °F 57.9 °F 86% 29.95 in 0.2 mi WNW 9.2 mph - N/A Fog Fog
11:19 PM 63.0 °F 57.0 °F 81% 29.97 in 1.0 mi WNW 13.8 mph 23.0 mph N/A   Haze
11:22 PM 64.0 °F 57.9 °F 80% 29.97 in 4.0 mi WNW 15.0 mph 23.0 mph N/A   Haze
11:31 PM 66.0 °F 57.0 °F 73% 29.97 in 8.0 mi NW 12.7 mph - N/A   Mostly Cloudy
11:51 PM 66.9 °F 55.0 °F 66% 29.98 in 7.0 mi NW 12.7 mph - N/A   Scattered Clouds